Year,Month,Day,Hour,Minute,Value (Times are PST for temperature in C)
2009,07,28,00,00,21.70
2009,07,28,00,01,21.70
2009,07,28,00,02,21.70
2009,07,28,00,03,21.70
2009,07,28,00,04,21.70
2009,07,28,00,05,21.60
2009,07,28,00,06,21.60
2009,07,28,00,07,21.60
2009,07,28,00,08,21.60
2009,07,28,00,09,21.60
2009,07,28,00,10,21.60
2009,07,28,00,11,21.60
2009,07,28,00,12,21.60
2009,07,28,00,13,21.60
2009,07,28,00,14,21.60
2009,07,28,00,15,21.50
2009,07,28,00,16,21.50
2009,07,28,00,17,21.50
2009,07,28,00,18,21.50
2009,07,28,00,19,21.50
2009,07,28,00,20,21.50
2009,07,28,00,21,21.50
2009,07,28,00,22,21.40
2009,07,28,00,23,21.50
2009,07,28,00,24,21.40
2009,07,28,00,25,21.50
2009,07,28,00,26,21.40
2009,07,28,00,27,21.40
2009,07,28,00,28,21.40
2009,07,28,00,29,21.40
2009,07,28,00,30,21.40
2009,07,28,00,31,21.40
2009,07,28,00,32,21.40
2009,07,28,00,33,21.40
2009,07,28,00,34,21.40
2009,07,28,00,35,21.30
2009,07,28,00,36,21.30
2009,07,28,00,37,21.30
2009,07,28,00,38,21.30
2009,07,28,00,39,21.30
2009,07,28,00,40,21.30
2009,07,28,00,41,21.20
2009,07,28,00,42,21.20
2009,07,28,00,43,21.20
2009,07,28,00,44,21.20
2009,07,28,00,45,21.10
2009,07,28,00,46,21.10
2009,07,28,00,47,21.10
2009,07,28,00,48,21.10
2009,07,28,00,49,21.10
2009,07,28,00,50,21.10
2009,07,28,00,51,21.00
2009,07,28,00,52,21.00
2009,07,28,00,53,21.00
2009,07,28,00,54,21.00
2009,07,28,00,55,21.00
2009,07,28,00,56,21.00
2009,07,28,00,57,20.90
2009,07,28,00,58,20.90
2009,07,28,00,59,20.90
2009,07,28,01,00,20.90
2009,07,28,01,01,20.90
2009,07,28,01,02,20.90
2009,07,28,01,03,20.90
2009,07,28,01,04,20.80
2009,07,28,01,05,20.80
2009,07,28,01,06,20.80
2009,07,28,01,07,20.70
2009,07,28,01,08,20.70
2009,07,28,01,09,20.70
2009,07,28,01,10,20.60
2009,07,28,01,11,20.60
2009,07,28,01,12,20.60
2009,07,28,01,13,20.50
2009,07,28,01,14,20.50
2009,07,28,01,15,20.50
2009,07,28,01,16,20.40
2009,07,28,01,17,20.40
2009,07,28,01,18,20.40
2009,07,28,01,19,20.40
2009,07,28,01,20,20.30
2009,07,28,01,21,20.30
2009,07,28,01,22,20.30
2009,07,28,01,23,20.30
2009,07,28,01,24,20.30
2009,07,28,01,25,20.30
2009,07,28,01,26,20.30
2009,07,28,01,27,20.30
2009,07,28,01,28,20.30
2009,07,28,01,29,20.30
2009,07,28,01,30,20.20
2009,07,28,01,31,20.20
2009,07,28,01,32,20.20
2009,07,28,01,33,20.20
2009,07,28,01,34,20.20
2009,07,28,01,35,20.20
2009,07,28,01,36,20.20
2009,07,28,01,37,20.20
2009,07,28,01,38,20.20
2009,07,28,01,39,20.20
2009,07,28,01,40,20.20
2009,07,28,01,41,20.20
2009,07,28,01,42,20.20
2009,07,28,01,43,20.20
2009,07,28,01,44,20.20
2009,07,28,01,45,20.20
2009,07,28,01,46,20.20
2009,07,28,01,47,20.20
2009,07,28,01,48,20.20
2009,07,28,01,49,20.20
2009,07,28,01,50,20.20
2009,07,28,01,51,20.20
2009,07,28,01,52,20.20
2009,07,28,01,53,20.10
2009,07,28,01,54,20.10
2009,07,28,01,55,20.10
2009,07,28,01,56,20.10
2009,07,28,01,57,20.10
2009,07,28,01,58,20.00
2009,07,28,01,59,20.00
2009,07,28,02,00,20.00
2009,07,28,02,01,20.00
2009,07,28,02,02,20.00
2009,07,28,02,03,19.90
2009,07,28,02,04,19.90
2009,07,28,02,05,19.90
2009,07,28,02,06,19.90
2009,07,28,02,07,19.80
2009,07,28,02,08,19.80
2009,07,28,02,09,19.80
2009,07,28,02,10,19.70
2009,07,28,02,11,19.70
2009,07,28,02,12,19.70
2009,07,28,02,13,19.70
2009,07,28,02,14,19.60
2009,07,28,02,15,19.60
2009,07,28,02,16,19.60
2009,07,28,02,17,19.50
2009,07,28,02,18,19.50
2009,07,28,02,19,19.40
2009,07,28,02,20,19.40
2009,07,28,02,21,19.40
2009,07,28,02,22,19.40
2009,07,28,02,23,19.30
2009,07,28,02,24,19.30
2009,07,28,02,25,19.30
2009,07,28,02,26,19.30
2009,07,28,02,27,19.30
2009,07,28,02,28,19.20
2009,07,28,02,29,19.20
2009,07,28,02,30,19.20
2009,07,28,02,31,19.20
2009,07,28,02,32,19.20
2009,07,28,02,33,19.20
2009,07,28,02,34,19.10
2009,07,28,02,35,19.10
2009,07,28,02,36,19.10
2009,07,28,02,37,19.10
2009,07,28,02,38,19.10
2009,07,28,02,39,19.00
2009,07,28,02,40,19.00
2009,07,28,02,41,19.00
2009,07,28,02,42,18.90
2009,07,28,02,43,18.90
2009,07,28,02,44,18.90
2009,07,28,02,45,18.90
2009,07,28,02,46,18.90
2009,07,28,02,47,18.90
2009,07,28,02,48,18.90
2009,07,28,02,49,18.90
2009,07,28,02,50,18.90
2009,07,28,02,51,18.90
2009,07,28,02,52,18.90
2009,07,28,02,53,18.80
2009,07,28,02,54,18.80
2009,07,28,02,55,18.80
2009,07,28,02,56,18.80
2009,07,28,02,57,18.80
2009,07,28,02,58,18.80
2009,07,28,02,59,18.80
2009,07,28,03,00,18.80
2009,07,28,03,01,18.80
2009,07,28,03,02,18.80
2009,07,28,03,03,18.80
2009,07,28,03,04,18.80
2009,07,28,03,05,18.80
2009,07,28,03,06,18.80
2009,07,28,03,07,18.80
2009,07,28,03,08,18.80
2009,07,28,03,09,18.80
2009,07,28,03,10,18.80
2009,07,28,03,11,18.80
2009,07,28,03,12,18.80
2009,07,28,03,13,18.80
2009,07,28,03,14,18.80
2009,07,28,03,15,18.80
2009,07,28,03,16,18.80
2009,07,28,03,17,18.80
2009,07,28,03,18,18.70
2009,07,28,03,19,18.70
2009,07,28,03,20,18.70
2009,07,28,03,21,18.80
2009,07,28,03,22,18.80
2009,07,28,03,23,18.80
2009,07,28,03,24,18.80
2009,07,28,03,25,18.80
2009,07,28,03,26,18.80
2009,07,28,03,27,18.80
2009,07,28,03,28,18.80
2009,07,28,03,29,18.80
2009,07,28,03,30,18.90
2009,07,28,03,31,18.90
2009,07,28,03,32,18.90
2009,07,28,03,33,18.90
2009,07,28,03,34,18.90
2009,07,28,03,35,18.90
2009,07,28,03,36,18.90
2009,07,28,03,37,18.90
2009,07,28,03,38,18.90
2009,07,28,03,39,18.90
2009,07,28,03,40,18.90
2009,07,28,03,41,18.90
2009,07,28,03,42,18.80
2009,07,28,03,43,18.80
2009,07,28,03,44,18.80
2009,07,28,03,45,18.70
2009,07,28,03,46,18.70
2009,07,28,03,47,18.70
2009,07,28,03,48,18.60
2009,07,28,03,49,18.60
2009,07,28,03,50,18.60
2009,07,28,03,51,18.50
2009,07,28,03,52,18.40
2009,07,28,03,53,18.40
2009,07,28,03,54,18.40
2009,07,28,03,55,18.40
2009,07,28,03,56,18.40
2009,07,28,03,57,18.30
2009,07,28,03,58,18.30
2009,07,28,03,59,18.30
2009,07,28,04,00,18.30
2009,07,28,04,01,18.30
2009,07,28,04,02,18.30
2009,07,28,04,03,18.30
2009,07,28,04,04,18.30
2009,07,28,04,05,18.30
2009,07,28,04,06,18.30
2009,07,28,04,07,18.20
2009,07,28,04,08,18.20
2009,07,28,04,09,18.20
2009,07,28,04,10,18.20
2009,07,28,04,11,18.20
2009,07,28,04,12,18.20
2009,07,28,04,13,18.20
2009,07,28,04,14,18.20
2009,07,28,04,15,18.20
2009,07,28,04,16,18.20
2009,07,28,04,17,18.20
2009,07,28,04,18,18.30
2009,07,28,04,19,18.20
2009,07,28,04,20,18.20
2009,07,28,04,21,18.20
2009,07,28,04,22,18.20
2009,07,28,04,23,18.20
2009,07,28,04,24,18.20
2009,07,28,04,25,18.20
2009,07,28,04,26,18.20
2009,07,28,04,27,18.20
2009,07,28,04,28,18.20
2009,07,28,04,29,18.20
2009,07,28,04,30,18.20
2009,07,28,04,31,18.20
2009,07,28,04,32,18.20
2009,07,28,04,33,18.20
2009,07,28,04,34,18.20
2009,07,28,04,35,18.20
2009,07,28,04,36,18.20
2009,07,28,04,37,18.20
2009,07,28,04,38,18.20
2009,07,28,04,39,18.20
2009,07,28,04,40,18.10
2009,07,28,04,41,18.10
2009,07,28,04,42,18.10
2009,07,28,04,43,18.10
2009,07,28,04,44,18.10
2009,07,28,04,45,18.10
2009,07,28,04,46,18.10
2009,07,28,04,47,18.10
2009,07,28,04,48,18.10
2009,07,28,04,49,18.10
2009,07,28,04,50,18.10
2009,07,28,04,51,18.10
2009,07,28,04,52,18.10
2009,07,28,04,53,18.10
2009,07,28,04,54,18.10
2009,07,28,04,55,18.10
2009,07,28,04,56,18.10
2009,07,28,04,57,18.10
2009,07,28,04,58,18.10
2009,07,28,04,59,18.10
2009,07,28,05,00,18.20
2009,07,28,05,01,18.20
2009,07,28,05,02,18.20
2009,07,28,05,03,18.20
2009,07,28,05,04,18.20
2009,07,28,05,05,18.10
2009,07,28,05,06,18.10
2009,07,28,05,07,18.10
2009,07,28,05,08,18.00
2009,07,28,05,09,18.00
2009,07,28,05,10,18.00
2009,07,28,05,11,17.90
2009,07,28,05,12,17.90
2009,07,28,05,13,17.90
2009,07,28,05,14,17.90
2009,07,28,05,15,17.90
2009,07,28,05,16,17.90
2009,07,28,05,17,17.90
2009,07,28,05,18,17.90
2009,07,28,05,19,18.00
2009,07,28,05,20,18.00
2009,07,28,05,21,18.00
2009,07,28,05,22,17.90
2009,07,28,05,23,17.90
2009,07,28,05,24,17.90
2009,07,28,05,25,17.90
2009,07,28,05,26,17.90
2009,07,28,05,27,17.80
2009,07,28,05,28,17.80
2009,07,28,05,29,17.80
2009,07,28,05,30,17.80
2009,07,28,05,31,17.80
2009,07,28,05,32,17.80
2009,07,28,05,33,17.80
2009,07,28,05,34,17.80
2009,07,28,05,35,17.80
2009,07,28,05,36,17.80
2009,07,28,05,37,17.80
2009,07,28,05,38,17.80
2009,07,28,05,39,17.70
2009,07,28,05,40,17.70
2009,07,28,05,41,17.70
2009,07,28,05,42,17.70
2009,07,28,05,43,17.80
2009,07,28,05,44,17.80
2009,07,28,05,45,17.80
2009,07,28,05,46,17.80
2009,07,28,05,47,17.80
2009,07,28,05,48,17.80
2009,07,28,05,49,17.80
2009,07,28,05,50,17.80
2009,07,28,05,51,17.80
2009,07,28,05,52,17.80
2009,07,28,05,53,17.80
2009,07,28,05,54,17.80
2009,07,28,05,55,17.80
2009,07,28,05,56,17.80
2009,07,28,05,57,17.80
2009,07,28,05,58,17.80
2009,07,28,05,59,17.80
2009,07,28,06,00,17.80
2009,07,28,06,01,17.80
2009,07,28,06,02,17.80
2009,07,28,06,03,17.80
2009,07,28,06,04,17.80
2009,07,28,06,05,17.70
2009,07,28,06,06,17.70
2009,07,28,06,07,17.70
2009,07,28,06,08,17.70
2009,07,28,06,09,17.70
2009,07,28,06,10,17.60
2009,07,28,06,11,17.60
2009,07,28,06,12,17.60
2009,07,28,06,13,17.70
2009,07,28,06,14,17.70
2009,07,28,06,15,17.70
2009,07,28,06,16,17.70
2009,07,28,06,17,17.70
2009,07,28,06,18,17.70
2009,07,28,06,19,17.70
2009,07,28,06,20,17.70
2009,07,28,06,21,17.70
2009,07,28,06,22,17.70
2009,07,28,06,23,17.70
2009,07,28,06,24,17.70
2009,07,28,06,25,17.70
2009,07,28,06,26,17.70
2009,07,28,06,27,17.70
2009,07,28,06,28,17.70
2009,07,28,06,29,17.70
2009,07,28,06,30,17.70
2009,07,28,06,31,17.70
2009,07,28,06,32,17.70
2009,07,28,06,33,17.80
2009,07,28,06,34,17.80
2009,07,28,06,35,17.80
2009,07,28,06,36,17.80
2009,07,28,06,37,17.80
2009,07,28,06,38,17.80
2009,07,28,06,39,17.80
2009,07,28,06,40,17.80
2009,07,28,06,41,17.80
2009,07,28,06,42,17.80
2009,07,28,06,43,17.80
2009,07,28,06,44,17.80
2009,07,28,06,45,17.80
2009,07,28,06,46,17.80
2009,07,28,06,47,17.90
2009,07,28,06,48,17.90
2009,07,28,06,49,17.90
2009,07,28,06,50,17.90
2009,07,28,06,51,17.90
2009,07,28,06,52,18.00
2009,07,28,06,53,18.00
2009,07,28,06,54,18.10
2009,07,28,06,55,18.10
2009,07,28,06,56,18.10
2009,07,28,06,57,18.10
2009,07,28,06,58,18.20
2009,07,28,06,59,18.20
2009,07,28,07,00,18.30
2009,07,28,07,01,18.30
2009,07,28,07,02,18.40
2009,07,28,07,03,18.40
2009,07,28,07,04,18.50
2009,07,28,07,05,18.50
2009,07,28,07,06,18.60
2009,07,28,07,07,18.60
2009,07,28,07,08,18.70
2009,07,28,07,09,18.70
2009,07,28,07,10,18.80
2009,07,28,07,11,18.90
2009,07,28,07,12,19.00
2009,07,28,07,13,19.10
2009,07,28,07,14,19.20
2009,07,28,07,15,19.20
2009,07,28,07,16,19.30
2009,07,28,07,17,19.40
2009,07,28,07,18,19.40
2009,07,28,07,19,19.50
2009,07,28,07,20,19.60
2009,07,28,07,21,19.60
2009,07,28,07,22,19.70
2009,07,28,07,23,19.70
2009,07,28,07,24,19.80
2009,07,28,07,25,19.80
2009,07,28,07,26,19.90
2009,07,28,07,27,19.90
2009,07,28,07,28,20.00
2009,07,28,07,29,20.00
2009,07,28,07,30,20.10
2009,07,28,07,31,20.20
2009,07,28,07,32,20.30
2009,07,28,07,33,20.30
2009,07,28,07,34,20.40
2009,07,28,07,35,20.50
2009,07,28,07,36,20.60
2009,07,28,07,37,20.70
2009,07,28,07,38,20.80
2009,07,28,07,39,20.80
2009,07,28,07,40,20.90
2009,07,28,07,41,20.90
2009,07,28,07,42,21.00
2009,07,28,07,43,21.00
2009,07,28,07,44,21.10
2009,07,28,07,45,21.20
2009,07,28,07,46,21.30
2009,07,28,07,47,21.40
2009,07,28,07,48,21.50
2009,07,28,07,49,21.70
2009,07,28,07,50,21.80
2009,07,28,07,51,21.80
2009,07,28,07,52,22.00
2009,07,28,07,53,22.10
2009,07,28,07,54,22.20
2009,07,28,07,55,22.30
2009,07,28,07,56,22.40
2009,07,28,07,57,22.60
2009,07,28,07,58,22.70
2009,07,28,07,59,22.80
2009,07,28,08,00,22.90
2009,07,28,08,01,22.90
2009,07,28,08,02,23.00
2009,07,28,08,03,23.10
2009,07,28,08,04,23.10
2009,07,28,08,05,23.20
2009,07,28,08,06,23.20
2009,07,28,08,07,23.30
2009,07,28,08,08,23.30
2009,07,28,08,09,23.30
2009,07,28,08,10,23.40
2009,07,28,08,11,23.40
2009,07,28,08,12,23.50
2009,07,28,08,13,23.60
2009,07,28,08,14,23.60
2009,07,28,08,15,23.70
2009,07,28,08,16,23.70
2009,07,28,08,17,23.80
2009,07,28,08,18,23.90
2009,07,28,08,19,23.90
2009,07,28,08,20,24.00
2009,07,28,08,21,24.00
2009,07,28,08,22,24.10
2009,07,28,08,23,24.20
2009,07,28,08,24,24.30
2009,07,28,08,25,24.30
2009,07,28,08,26,24.40
2009,07,28,08,27,24.50
2009,07,28,08,28,24.60
2009,07,28,08,29,24.60
2009,07,28,08,30,24.60
2009,07,28,08,31,24.70
2009,07,28,08,32,24.80
2009,07,28,08,33,24.80
2009,07,28,08,34,24.90
2009,07,28,08,35,25.00
2009,07,28,08,36,25.10
2009,07,28,08,37,25.10
2009,07,28,08,38,25.20
2009,07,28,08,39,25.20
2009,07,28,08,40,25.30
2009,07,28,08,41,25.30
2009,07,28,08,42,25.30
2009,07,28,08,43,25.30
2009,07,28,08,44,25.30
2009,07,28,08,45,25.40
2009,07,28,08,46,25.40
2009,07,28,08,47,25.40
2009,07,28,08,48,25.50
2009,07,28,08,49,25.50
2009,07,28,08,50,25.60
2009,07,28,08,51,25.70
2009,07,28,08,52,25.70
2009,07,28,08,53,25.80
2009,07,28,08,54,25.90
2009,07,28,08,55,25.90
2009,07,28,08,56,26.10
2009,07,28,08,57,26.20
2009,07,28,08,58,26.30
2009,07,28,08,59,26.40
2009,07,28,09,00,26.50
2009,07,28,09,01,26.60
2009,07,28,09,02,26.70
2009,07,28,09,03,26.70
2009,07,28,09,04,26.80
2009,07,28,09,05,26.80
2009,07,28,09,06,26.80
2009,07,28,09,07,26.80
2009,07,28,09,08,26.80
2009,07,28,09,09,26.80
2009,07,28,09,10,26.80
2009,07,28,09,11,26.90
2009,07,28,09,12,26.90
2009,07,28,09,13,26.80
2009,07,28,09,14,26.80
2009,07,28,09,15,26.90
2009,07,28,09,16,26.90
2009,07,28,09,17,27.00
2009,07,28,09,18,27.10
2009,07,28,09,19,27.10
2009,07,28,09,20,27.20
2009,07,28,09,21,27.20
2009,07,28,09,22,27.20
2009,07,28,09,23,27.30
2009,07,28,09,24,27.30
2009,07,28,09,25,27.40
2009,07,28,09,26,27.40
2009,07,28,09,27,27.50
2009,07,28,09,28,27.50
2009,07,28,09,29,27.50
2009,07,28,09,30,27.50
2009,07,28,09,31,27.50
2009,07,28,09,32,27.50
2009,07,28,09,33,27.50
2009,07,28,09,34,27.50
2009,07,28,09,35,27.60
2009,07,28,09,36,27.60
2009,07,28,09,37,27.60
2009,07,28,09,38,27.60
2009,07,28,09,39,27.60
2009,07,28,09,40,27.60
2009,07,28,09,41,27.70
2009,07,28,09,42,27.70
2009,07,28,09,43,27.70
2009,07,28,09,44,27.70
2009,07,28,09,45,27.60
2009,07,28,09,46,27.60
2009,07,28,09,47,27.60
2009,07,28,09,48,27.60
2009,07,28,09,49,27.60
2009,07,28,09,50,27.60
2009,07,28,09,51,27.60
2009,07,28,09,52,27.60
2009,07,28,09,53,27.50
2009,07,28,09,54,27.50
2009,07,28,09,55,27.40
2009,07,28,09,56,27.40
2009,07,28,09,57,27.40
2009,07,28,09,58,27.30
2009,07,28,09,59,27.30
2009,07,28,10,00,27.20
2009,07,28,10,01,27.20
2009,07,28,10,02,27.20
2009,07,28,10,03,27.20
2009,07,28,10,04,27.30
2009,07,28,10,05,27.30
2009,07,28,10,06,27.40
2009,07,28,10,07,27.40
2009,07,28,10,08,27.40
2009,07,28,10,09,27.50
2009,07,28,10,10,27.50
2009,07,28,10,11,27.60
2009,07,28,10,12,27.60
2009,07,28,10,13,27.60
2009,07,28,10,14,27.60
2009,07,28,10,15,27.70
2009,07,28,10,16,27.80
2009,07,28,10,17,27.80
2009,07,28,10,18,27.80
2009,07,28,10,19,27.80
2009,07,28,10,20,27.90
2009,07,28,10,21,27.90
2009,07,28,10,22,27.90
2009,07,28,10,23,28.00
2009,07,28,10,24,28.10
2009,07,28,10,25,28.10
2009,07,28,10,26,28.10
2009,07,28,10,27,28.20
2009,07,28,10,28,28.20
2009,07,28,10,29,28.30
2009,07,28,10,30,28.30
2009,07,28,10,31,28.30
2009,07,28,10,32,28.30
2009,07,28,10,33,28.40
2009,07,28,10,34,28.40
2009,07,28,10,35,28.40
2009,07,28,10,36,28.40
2009,07,28,10,37,28.40
2009,07,28,10,38,28.30
2009,07,28,10,39,28.30
2009,07,28,10,40,28.30
2009,07,28,10,41,28.20
2009,07,28,10,42,28.20
2009,07,28,10,43,28.20
2009,07,28,10,44,28.20
2009,07,28,10,45,28.20
2009,07,28,10,46,28.20
2009,07,28,10,47,28.30
2009,07,28,10,48,28.30
2009,07,28,10,49,28.30
2009,07,28,10,50,28.30
2009,07,28,10,51,28.40
2009,07,28,10,52,28.50
2009,07,28,10,53,28.60
2009,07,28,10,54,28.70
2009,07,28,10,55,28.90
2009,07,28,10,56,28.90
2009,07,28,10,57,29.00
2009,07,28,10,58,29.10
2009,07,28,10,59,29.10
2009,07,28,11,00,29.10
2009,07,28,11,01,29.10
2009,07,28,11,02,29.10
2009,07,28,11,03,29.10
2009,07,28,11,04,29.20
2009,07,28,11,05,29.20
2009,07,28,11,06,29.30
2009,07,28,11,07,29.30
2009,07,28,11,08,29.30
2009,07,28,11,09,29.30
2009,07,28,11,10,29.30
2009,07,28,11,11,29.30
2009,07,28,11,12,29.30
2009,07,28,11,13,29.30
2009,07,28,11,14,29.30
2009,07,28,11,15,29.20
2009,07,28,11,16,29.10
2009,07,28,11,17,29.00
2009,07,28,11,18,29.00
2009,07,28,11,19,28.90
2009,07,28,11,20,28.90
2009,07,28,11,21,28.90
2009,07,28,11,22,28.80
2009,07,28,11,23,28.80
2009,07,28,11,24,28.80
2009,07,28,11,25,28.80
2009,07,28,11,26,28.90
2009,07,28,11,27,28.90
2009,07,28,11,28,29.00
2009,07,28,11,29,29.10
2009,07,28,11,30,29.20
2009,07,28,11,31,29.30
2009,07,28,11,32,29.40
2009,07,28,11,33,29.50
2009,07,28,11,34,29.60
2009,07,28,11,35,29.60
2009,07,28,11,36,29.60
2009,07,28,11,37,29.60
2009,07,28,11,38,29.60
2009,07,28,11,39,29.60
2009,07,28,11,40,29.70
2009,07,28,11,41,29.80
2009,07,28,11,42,29.90
2009,07,28,11,43,30.10
2009,07,28,11,44,30.20
2009,07,28,11,45,30.30
2009,07,28,11,46,30.50
2009,07,28,11,47,30.60
2009,07,28,11,48,30.70
2009,07,28,11,49,30.80
2009,07,28,11,50,30.80
2009,07,28,11,51,30.90
2009,07,28,11,52,31.00
2009,07,28,11,53,31.10
2009,07,28,11,54,31.20
2009,07,28,11,55,31.20
2009,07,28,11,56,31.30
2009,07,28,11,57,31.30
2009,07,28,11,58,31.30
2009,07,28,11,59,31.20
2009,07,28,12,00,31.20
2009,07,28,12,01,31.10
2009,07,28,12,02,31.00
2009,07,28,12,03,30.90
2009,07,28,12,04,30.80
2009,07,28,12,05,30.70
2009,07,28,12,06,30.70
2009,07,28,12,07,30.60
2009,07,28,12,08,30.60
2009,07,28,12,09,30.60
2009,07,28,12,10,30.60
2009,07,28,12,11,30.60
2009,07,28,12,12,30.60
2009,07,28,12,13,30.70
2009,07,28,12,14,30.70
2009,07,28,12,15,30.70
2009,07,28,12,16,30.70
2009,07,28,12,17,30.70
2009,07,28,12,18,30.70
2009,07,28,12,19,30.70
2009,07,28,12,20,30.70
2009,07,28,12,21,30.80
2009,07,28,12,22,30.80
2009,07,28,12,23,30.80
2009,07,28,12,24,30.90
2009,07,28,12,25,30.90
2009,07,28,12,26,31.00
2009,07,28,12,27,31.10
2009,07,28,12,28,31.20
2009,07,28,12,29,31.20
2009,07,28,12,30,31.20
2009,07,28,12,31,31.20
2009,07,28,12,32,31.20
2009,07,28,12,33,31.20
2009,07,28,12,34,31.20
2009,07,28,12,35,31.20
2009,07,28,12,36,31.30
2009,07,28,12,37,31.30
2009,07,28,12,38,31.30
2009,07,28,12,39,31.30
2009,07,28,12,40,31.40
2009,07,28,12,41,31.30
2009,07,28,12,42,31.30
2009,07,28,12,43,31.30
2009,07,28,12,44,31.30
2009,07,28,12,45,31.30
2009,07,28,12,46,31.30
2009,07,28,12,47,31.30
2009,07,28,12,48,31.30
2009,07,28,12,49,31.30
2009,07,28,12,50,31.40
2009,07,28,12,51,31.40
2009,07,28,12,52,31.40
2009,07,28,12,53,31.40
2009,07,28,12,54,31.50
2009,07,28,12,55,31.50
2009,07,28,12,56,31.60
2009,07,28,12,57,31.60
2009,07,28,12,58,31.70
2009,07,28,12,59,31.70
2009,07,28,13,00,31.80
2009,07,28,13,01,31.80
2009,07,28,13,02,31.90
2009,07,28,13,03,32.00
2009,07,28,13,04,32.00
2009,07,28,13,05,32.10
2009,07,28,13,06,32.20
2009,07,28,13,07,32.30
2009,07,28,13,08,32.40
2009,07,28,13,09,32.50
2009,07,28,13,10,32.50
2009,07,28,13,11,32.60
2009,07,28,13,12,32.70
2009,07,28,13,13,32.70
2009,07,28,13,14,32.70
2009,07,28,13,15,32.80
2009,07,28,13,16,32.80
2009,07,28,13,17,32.90
2009,07,28,13,18,32.90
2009,07,28,13,19,33.00
2009,07,28,13,20,33.10
2009,07,28,13,21,33.10
2009,07,28,13,22,33.10
2009,07,28,13,23,33.00
2009,07,28,13,24,33.00
2009,07,28,13,25,32.90
2009,07,28,13,26,33.00
2009,07,28,13,27,32.90
2009,07,28,13,28,32.90
2009,07,28,13,29,32.90
2009,07,28,13,30,32.90
2009,07,28,13,31,32.90
2009,07,28,13,32,32.90
2009,07,28,13,33,32.90
2009,07,28,13,34,32.90
2009,07,28,13,35,32.90
2009,07,28,13,36,32.80
2009,07,28,13,37,32.80
2009,07,28,13,38,32.80
2009,07,28,13,39,32.80
2009,07,28,13,40,32.80
2009,07,28,13,41,32.80
2009,07,28,13,42,32.80
2009,07,28,13,43,32.90
2009,07,28,13,44,33.00
2009,07,28,13,45,33.10
2009,07,28,13,46,33.20
2009,07,28,13,47,33.30
2009,07,28,13,48,33.40
2009,07,28,13,49,33.50
2009,07,28,13,50,33.50
2009,07,28,13,51,33.50
2009,07,28,13,52,33.50
2009,07,28,13,53,33.40
2009,07,28,13,54,33.40
2009,07,28,13,55,33.30
2009,07,28,13,56,33.10
2009,07,28,13,57,32.90
2009,07,28,13,58,32.70
2009,07,28,13,59,32.50
2009,07,28,14,00,32.30
2009,07,28,14,01,32.30
2009,07,28,14,02,32.20
2009,07,28,14,03,32.20
2009,07,28,14,04,32.20
2009,07,28,14,05,32.30
2009,07,28,14,06,32.30
2009,07,28,14,07,32.30
2009,07,28,14,08,32.30
2009,07,28,14,09,32.20
2009,07,28,14,10,32.00
2009,07,28,14,11,31.80
2009,07,28,14,12,31.70
2009,07,28,14,13,31.70
2009,07,28,14,14,31.70
2009,07,28,14,15,31.60
2009,07,28,14,16,31.70
2009,07,28,14,17,31.60
2009,07,28,14,18,31.50
2009,07,28,14,19,31.40
2009,07,28,14,20,31.30
2009,07,28,14,21,31.20
2009,07,28,14,22,31.10
2009,07,28,14,23,31.00
2009,07,28,14,24,30.90
2009,07,28,14,25,30.80
2009,07,28,14,26,30.70
2009,07,28,14,27,30.60
2009,07,28,14,28,30.40
2009,07,28,14,29,30.40
2009,07,28,14,30,30.30
2009,07,28,14,31,30.20
2009,07,28,14,32,30.20
2009,07,28,14,33,30.10
2009,07,28,14,34,30.10
2009,07,28,14,35,30.10
2009,07,28,14,36,30.10
2009,07,28,14,37,30.10
2009,07,28,14,38,30.00
2009,07,28,14,39,29.90
2009,07,28,14,40,29.90
2009,07,28,14,41,29.80
2009,07,28,14,42,29.80
2009,07,28,14,43,29.80
2009,07,28,14,44,29.80
2009,07,28,14,45,29.70
2009,07,28,14,46,29.70
2009,07,28,14,47,29.80
2009,07,28,14,48,29.80
2009,07,28,14,49,29.80
2009,07,28,14,50,29.80
2009,07,28,14,51,29.80
2009,07,28,14,52,29.80
2009,07,28,14,53,29.80
2009,07,28,14,54,29.80
2009,07,28,14,55,29.80
2009,07,28,14,56,29.80
2009,07,28,14,57,29.80
2009,07,28,14,58,29.80
2009,07,28,14,59,29.80
2009,07,28,15,00,29.70
2009,07,28,15,01,29.70
2009,07,28,15,02,29.70
2009,07,28,15,03,29.70
2009,07,28,15,04,29.60
2009,07,28,15,05,29.60
2009,07,28,15,06,29.60
2009,07,28,15,07,29.60
2009,07,28,15,08,29.60
2009,07,28,15,09,29.60
2009,07,28,15,10,29.60
2009,07,28,15,11,29.60
2009,07,28,15,12,29.60
2009,07,28,15,13,29.70
2009,07,28,15,14,29.70
2009,07,28,15,15,29.70
2009,07,28,15,16,29.70
2009,07,28,15,17,29.70
2009,07,28,15,18,29.70
2009,07,28,15,19,29.70
2009,07,28,15,20,29.80
2009,07,28,15,21,29.80
2009,07,28,15,22,29.80
2009,07,28,15,23,29.80
2009,07,28,15,24,29.70
2009,07,28,15,25,29.70
2009,07,28,15,26,29.70
2009,07,28,15,27,29.60
2009,07,28,15,28,29.60
2009,07,28,15,29,29.50
2009,07,28,15,30,29.50
2009,07,28,15,31,29.50
2009,07,28,15,32,29.40
2009,07,28,15,33,29.50
2009,07,28,15,34,29.50
2009,07,28,15,35,29.40
2009,07,28,15,36,29.40
2009,07,28,15,37,29.40
2009,07,28,15,38,29.40
2009,07,28,15,39,29.40
2009,07,28,15,40,29.40
2009,07,28,15,41,29.40
2009,07,28,15,42,29.30
2009,07,28,15,43,29.30
2009,07,28,15,44,29.20
2009,07,28,15,45,29.20
2009,07,28,15,46,29.10
2009,07,28,15,47,29.10
2009,07,28,15,48,29.00
2009,07,28,15,49,29.00
2009,07,28,15,50,29.00
2009,07,28,15,51,28.90
2009,07,28,15,52,28.90
2009,07,28,15,53,28.90
2009,07,28,15,54,28.90
2009,07,28,15,55,28.90
2009,07,28,15,56,28.90
2009,07,28,15,57,28.90
2009,07,28,15,58,28.90
2009,07,28,15,59,28.90
2009,07,28,16,00,28.90
2009,07,28,16,01,28.90
2009,07,28,16,02,28.80
2009,07,28,16,03,28.80
2009,07,28,16,04,28.80
2009,07,28,16,05,28.90
2009,07,28,16,06,28.90
2009,07,28,16,07,28.90
2009,07,28,16,08,29.00
2009,07,28,16,09,29.00
2009,07,28,16,10,29.00
2009,07,28,16,11,29.00
2009,07,28,16,12,29.10
2009,07,28,16,13,29.00
2009,07,28,16,14,29.00
2009,07,28,16,15,29.10
2009,07,28,16,16,29.10
2009,07,28,16,17,29.10
2009,07,28,16,18,29.10
2009,07,28,16,19,29.10
2009,07,28,16,20,29.10
2009,07,28,16,21,29.10
2009,07,28,16,22,29.10
2009,07,28,16,23,29.20
2009,07,28,16,24,29.20
2009,07,28,16,25,29.20
2009,07,28,16,26,29.20
2009,07,28,16,27,29.20
2009,07,28,16,28,29.30
2009,07,28,16,29,29.30
2009,07,28,16,30,29.40
2009,07,28,16,31,29.40
2009,07,28,16,32,29.50
2009,07,28,16,33,29.50
2009,07,28,16,34,29.60
2009,07,28,16,35,29.60
2009,07,28,16,36,29.70
2009,07,28,16,37,29.80
2009,07,28,16,38,29.80
2009,07,28,16,39,29.80
2009,07,28,16,40,29.90
2009,07,28,16,41,29.90
2009,07,28,16,42,30.00
2009,07,28,16,43,30.00
2009,07,28,16,44,30.10
2009,07,28,16,45,30.20
2009,07,28,16,46,30.20
2009,07,28,16,47,30.20
2009,07,28,16,48,30.30
2009,07,28,16,49,30.30
2009,07,28,16,50,30.30
2009,07,28,16,51,30.30
2009,07,28,16,52,30.30
2009,07,28,16,53,30.30
2009,07,28,16,54,30.30
2009,07,28,16,55,30.30
2009,07,28,16,56,30.30
2009,07,28,16,57,30.20
2009,07,28,16,58,30.30
2009,07,28,16,59,30.30
2009,07,28,17,00,30.30
2009,07,28,17,01,30.30
2009,07,28,17,02,30.30
2009,07,28,17,03,30.30
2009,07,28,17,04,30.30
2009,07,28,17,05,30.30
2009,07,28,17,06,30.40
2009,07,28,17,07,30.30
2009,07,28,17,08,30.30
2009,07,28,17,09,30.30
2009,07,28,17,10,30.30
2009,07,28,17,11,30.30
2009,07,28,17,12,30.30
2009,07,28,17,13,30.30
2009,07,28,17,14,30.30
2009,07,28,17,15,30.30
2009,07,28,17,16,30.20
2009,07,28,17,17,30.20
2009,07,28,17,18,30.30
2009,07,28,17,19,30.30